Flag for Canada Weather past 2 weeks in Arctic Bay, Nunavut Territory, Canada

Now
-24 °F

Snow flurries. Scattered clouds.


Feels Like: -38 °F
Forecast: -29 / -25 °F
Wind: 5 mph from East

Location: Pond Inlet

Current Time: Dec 18, 2014 at 2:42:50 PM

Latest Report: Dec 18, 2014 at 2:00 PM


Visibility: 15 mi

Pressure: 29.96 "Hg

Humidity: 75%

Dew point: -29 °F

Location of Arctic BayLocation

Historic Weather in Arctic Bay — Graph

°F

Arctic Bay temperature yesterday

Maximum temperature yesterday: -9 °F (at 4:00 AM)
Minimum temperature yesterday: -18 °F (at 5:55 AM)
Average temperature yesterday: -15 °F

Past Weeks' High & Low Weather Summary

 TemperatureHumidityPressure
High5 °F (Dec 10, 5:00 PM)92% (Dec 10, 2:00 PM)30.13 "Hg (Dec 10, 2:00 PM)
Low-33 °F (Dec 8, 9:00 AM)60% (Dec 8, 10:00 AM)29.43 "Hg (Dec 11, 8:00 AM)
Average-18 °F75%29.84 "Hg
* Reported Dec 3 1:00 PM — Dec 18 1:00 PM, Arctic Bay, Weather by CustomWeather, © 2014

Note: Actual official high and low records may vary slightly from our data, if they occured in-between our weather recording intervals... More about our weather records

Advertising

Arctic Bay weather history for previous 24 hours

 ConditionsComfort  
Time TempWeatherWind HumidityBarometerVisibility
1:00 PM
Dec 18
-20 °FSnow flurries. Scattered clouds.2 mph75%29.95 "Hg15 mi
12:00 PM-18 °FLight snow. Scattered clouds.5 mph75%29.94 "Hg9 mi
11:00 AM-20 °FSnow flurries. Broken clouds.9 mph75%29.93 "Hg15 mi
10:00 AM-18 °FLight snow. Scattered clouds.7 mph75%29.93 "Hg6 mi
9:00 AM-18 °FLight snow. Mostly cloudy.No wind75%29.93 "Hg9 mi
8:04 AM-18 °FLight snow. Overcast.5 mph75%29.92 "Hg5 mi
7:00 AM-18 °FLight snow. Overcast.8 mph75%29.91 "Hg8 mi
6:00 AM-18 °FMore clouds than sun.7 mph75%29.91 "Hg9 mi
5:00 AM-20 °FPartly sunny.7 mph75%29.91 "Hg9 mi
4:00 AM-18 °FClear.8 mph75%29.92 "Hg9 mi
3:00 AM-18 °FOvercast.No wind83%29.91 "Hg9 mi
2:00 AM-18 °FClear.7 mph75%29.91 "Hg9 mi
1:00 AM-20 °FClear.7 mph75%29.90 "Hg9 mi
12:00 AM-20 °FClear.7 mph75%29.89 "Hg9 mi
11:00 PM
Dec 17
-18 °FSunny.8 mph83%29.88 "Hg9 mi
10:00 PM-18 °FPassing clouds.6 mph83%29.87 "Hg9 mi
9:00 PM-17 °FClear.7 mph76%29.87 "Hg9 mi
8:00 PM-18 °FClear.6 mph83%29.85 "Hg9 mi
7:00 PM-18 °FClear.3 mph75%29.84 "Hg9 mi
6:00 PM-18 °FClear.5 mph75%29.83 "Hg9 mi
5:00 PM-17 °FSunny.5 mph76%29.82 "Hg9 mi
4:00 PM-17 °FLight snow. Scattered clouds.3 mph76%29.81 "Hg15 mi
3:00 PM-13 °FLight snow. Scattered clouds.6 mph76%29.79 "Hg15 mi
2:00 PM-15 °FLight snow. Partly sunny.8 mph76%29.77 "Hg5 mi
Weather by CustomWeather, © 2014

See weather overviewHow to use our weather pages